Total_Precipitation_Accumulation
0.05 0.04 0.02 0.01 0.01 0.01 0.02 0.01 0.01 0.01 0.01 0.01 0.01 0.01 0.01 0.02 0.02 0.02 0.03 0.02 0.02 0.02 0.02 0.02 0.02 0.02 0.03 0.03 0.03 0.03 0.03 0.03 0.02 0.03 0.03 0.04 0.04 0.03 0.03 0.02 0.02 0.02 0.02 0.03 0.07 0.13 0.14 0.13 0.12 0.11 0.12 0.19 0.23 0.21 0.19 0.17 0.15 0.14 0.15 0.18 0.20 0.18 0.17 0.24 0.27 0.19 0.07 0.01 0.01 0.02 0.03 0.04 0.06 0.08 0.12 0.14 0.11 0.08 0.09 0.11 0.20 0.24 0.23 0.24 0.25
0.02 0.01 0.01 0.01 0.01 0.02 0.02 0.02 0.02 0.01 0.01 0.01 0.01 0.01 0.01 0.01 0.01 0.02 0.02 0.02 0.04 0.06 0.06 0.16 0.05 0.06 0.06 0.04 0.04 0.03 0.03 0.03 0.03 0.03 0.03 0.04 0.03 0.03 0.03 0.03 0.03 0.02 0.02 0.02 0.02 0.03 0.07 0.14 0.12 0.10 0.12 0.18 0.22 0.23 0.22 0.22 0.22 0.20 0.17 0.16 0.19 0.19 0.16 0.19 0.23 0.18 0.14 0.04 0.02 0.02 0.03 0.04 0.08 0.07 0.11 0.12 0.14 0.13 0.11 0.12 0.11 0.17 0.21 0.21 0.26
0.01 0.01 0.02 0.02 0.02 0.02 0.02 0.02 0.03 0.03 0.03 0.04 0.03 0.03 0.03 0.02 0.02 0.03 0.03 0.03 0.04 0.05 0.08 0.10 0.10 0.11 0.12 0.13 0.12 0.11 0.09 0.08 0.07 0.07 0.07 0.07 0.07 0.07 0.05 0.04 0.03 0.03 0.03 0.02 0.02 0.07 0.06 0.08 0.10 0.11 0.14 0.19 0.19 0.22 0.22 0.23 0.24 0.24 0.20 0.17 0.14 0.13 0.13 0.14 0.19 0.19 0.14 0.09 0.04 0.03 0.04 0.05 0.07 0.13 0.11 0.11 0.11 0.13 0.16 0.16 0.18 0.18 0.20 0.17 0.20
0.01 0.02 0.03 0.03 0.02 0.03 0.03 0.03 0.03 0.03 0.02 0.04 0.02 0.04 0.02 0.03 0.04 0.07 0.07 0.10 0.11 0.09 0.09 0.09 0.07 0.06 0.06 0.06 0.05 0.05 0.05 0.04 0.04 0.04 0.04 0.04 0.04 0.03 0.04 0.05 0.07 0.09 0.08 0.05 0.06 0.06 0.05 0.08 0.07 0.06 0.12 0.19 0.18 0.17 0.18 0.22 0.24 0.24 0.22 0.17 0.14 0.12 0.10 0.12 0.16 0.20 0.15 0.13 0.07 0.05 0.04 0.05 0.06 0.06 0.09 0.13 0.15 0.18 0.21 0.22 0.21 0.22 0.19 0.19 0.22
0.02 0.03 0.02 0.03 0.02 0.03 0.03 0.03 0.02 0.03 0.05 0.04 0.04 0.06 0.05 0.05 0.06 0.07 0.07 0.06 0.06 0.06 0.06 0.06 0.06 0.06 0.07 0.06 0.05 0.05 0.05 0.05 0.05 0.05 0.04 0.04 0.04 0.04 0.04 0.04 0.04 0.04 0.05 0.06 0.07 0.08 0.08 0.07 0.09 0.13 0.11 0.09 0.12 0.19 0.19 0.22 0.26 0.23 0.20 0.19 0.16 0.12 0.12 0.11 0.14 0.14 0.20 0.17 0.12 0.06 0.05 0.05 0.05 0.06 0.08 0.12 0.15 0.20 0.27 0.26 0.28 0.27 0.24 0.20 0.18
0.03 0.03 0.02 0.03 0.04 0.03 0.03 0.03 0.03 0.03 0.03 0.03 0.04 0.04 0.04 0.05 0.05 0.05 0.05 0.06 0.07 0.07 0.07 0.07 0.07 0.06 0.07 0.06 0.05 0.05 0.05 0.06 0.06 0.06 0.05 0.05 0.05 0.05 0.05 0.05 0.05 0.05 0.05 0.04 0.04 0.05 0.07 0.08 0.08 0.08 0.11 0.11 0.09 0.09 0.13 0.18 0.26 0.29 0.26 0.22 0.20 0.18 0.18 0.19 0.12 0.12 0.17 0.15 0.12 0.11 0.06 0.07 0.07 0.08 0.09 0.10 0.13 0.17 0.22 0.25 0.27 0.28 0.30 0.28 0.24
0.03 0.02 0.03 0.04 0.04 0.03 0.03 0.02 0.02 0.02 0.03 0.04 0.04 0.05 0.05 0.06 0.06 0.06 0.07 0.08 0.08 0.07 0.06 0.06 0.05 0.06 0.05 0.05 0.05 0.05 0.05 0.05 0.05 0.05 0.05 0.04 0.05 0.06 0.05 0.05 0.05 0.05 0.05 0.04 0.04 0.04 0.05 0.06 0.07 0.08 0.10 0.10 0.12 0.10 0.11 0.14 0.19 0.17 0.24 0.22 0.24 0.24 0.27 0.27 0.25 0.21 0.20 0.16 0.14 0.12 0.08 0.06 0.06 0.09 0.07 0.08 0.11 0.13 0.16 0.20 0.25 0.27 0.26 0.28 0.29
0.05 0.05 0.04 0.03 0.02 0.02 0.02 0.02 0.03 0.04 0.04 0.04 0.05 0.06 0.07 0.08 0.08 0.09 0.08 0.08 0.08 0.06 0.06 0.06 0.05 0.06 0.06 0.06 0.06 0.06 0.06 0.07 0.07 0.07 0.06 0.05 0.06 0.06 0.06 0.07 0.06 0.06 0.05 0.05 0.05 0.05 0.05 0.06 0.06 0.07 0.08 0.10 0.11 0.11 0.12 0.14 0.17 0.24 0.17 0.39 0.26 0.34 0.34 0.28 0.27 0.29 0.25 0.20 0.18 0.16 0.10 0.08 0.06 0.06 0.06 0.09 0.12 0.14 0.14 0.16 0.20 0.21 0.24 0.25 0.26
0.05 0.03 0.02 0.02 0.03 0.03 0.03 0.04 0.04 0.04 0.04 0.05 0.07 0.08 0.09 0.10 0.11 0.11 0.11 0.08 0.07 0.07 0.07 0.08 0.08 0.08 0.07 0.07 0.07 0.07 0.09 0.09 0.09 0.16 0.18 0.11 0.08 0.09 0.09 0.10 0.10 0.09 0.09 0.07 0.07 0.07 0.08 0.07 0.08 0.08 0.09 0.08 0.09 0.11 0.12 0.13 0.17 0.15 0.17 0.22 0.24 0.27 0.25 0.30 0.31 0.31 0.29 0.25 0.25 0.15 0.12 0.11 0.07 0.08 0.10 0.10 0.11 0.12 0.11 0.10 0.12 0.12 0.16 0.19 0.23
0.02 0.03 0.03 0.03 0.03 0.04 0.07 0.06 0.07 0.05 0.11 0.08 0.09 0.10 0.11 0.12 0.15 0.13 0.09 0.09 0.09 0.09 0.11 0.12 0.13 0.11 0.10 0.09 0.09 0.11 0.13 0.16 0.14 0.10 0.14 0.18 0.22 0.22 0.20 0.18 0.16 0.15 0.13 0.11 0.10 0.09 0.10 0.11 0.10 0.09 0.10 0.11 0.11 0.14 0.15 0.17 0.18 0.20 0.16 0.17 0.20 0.21 0.23 0.25 0.26 0.27 0.29 0.31 0.31 0.20 0.20 0.13 0.09 0.06 0.06 0.05 0.04 0.03 0.05 0.08 0.11 0.10 0.12 0.16 0.19
0.03 0.03 0.04 0.04 0.05 0.06 0.07 0.06 0.12 0.08 0.11 0.10 0.11 0.12 0.12 0.12 0.12 0.11 0.10 0.11 0.12 0.10 0.10 0.10 0.11 0.11 0.12 0.12 0.11 0.12 0.14 0.11 0.12 0.16 0.25 0.35 0.39 0.40 0.33 0.26 0.20 0.18 0.17 0.16 0.14 0.11 0.09 0.08 0.09 0.09 0.11 0.12 0.14 0.15 0.16 0.20 0.21 0.24 0.24 0.21 0.22 0.26 0.27 0.22 0.18 0.17 0.21 0.25 0.24 0.26 0.16 0.14 0.07 0.04 0.03 0.03 0.03 0.03 0.05 0.05 0.07 0.09 0.13 0.19 0.23
0.04 0.04 0.04 0.04 0.04 0.05 0.06 0.07 0.09 0.10 0.11 0.13 0.13 0.13 0.12 0.13 0.14 0.11 0.11 0.10 0.10 0.10 0.11 0.10 0.11 0.22 0.15 0.15 0.15 0.15 0.12 0.12 0.18 0.26 0.32 0.44 0.55 0.56 0.53 0.40 0.30 0.24 0.19 0.16 0.13 0.12 0.11 0.11 0.10 0.10 0.10 0.11 0.11 0.13 0.14 0.17 0.20 0.21 0.27 0.30 0.33 0.33 0.28 0.28 0.26 0.19 0.16 0.18 0.21 0.21 0.19 0.13 0.09 0.05 0.04 0.05 0.04 0.04 0.04 0.06 0.07 0.10 0.12 0.14 0.17
0.05 0.05 0.04 0.05 0.05 0.06 0.08 0.09 0.11 0.12 0.12 0.13 0.13 0.13 0.14 0.15 0.13 0.15 0.13 0.12 0.12 0.14 0.12 0.13 0.15 0.15 0.18 0.19 0.18 0.16 0.29 0.15 0.23 0.34 0.37 0.55 0.65 0.75 0.75 0.67 0.46 0.36 0.27 0.21 0.18 0.14 0.13 0.13 0.12 0.10 0.09 0.09 0.12 0.11 0.12 0.14 0.14 0.19 0.24 0.27 0.39 0.56 0.49 0.48 0.27 0.23 0.24 0.22 0.19 0.17 0.19 0.12 0.12 0.09 0.05 0.06 0.10 0.06 0.06 0.07 0.07 0.08 0.10 0.12 0.12
0.06 0.05 0.05 0.06 0.06 0.08 0.10 0.11 0.11 0.11 0.11 0.12 0.13 0.14 0.17 0.16 0.16 0.18 0.17 0.17 0.16 0.14 0.14 0.15 0.17 0.19 0.23 0.27 0.29 0.25 0.22 0.21 0.26 0.35 0.46 0.58 0.69 0.97 0.79 0.69 0.52 0.36 0.28 0.23 0.19 0.16 0.15 0.14 0.14 0.13 0.12 0.12 0.14 0.14 0.14 0.14 0.16 0.18 0.20 0.24 0.26 0.28 0.45 0.50 0.48 0.43 0.33 0.27 0.27 0.25 0.17 0.17 0.12 0.10 0.11 0.11 0.15 0.11 0.12 0.13 0.13 0.11 0.11 0.13 0.10
0.06 0.05 0.06 0.06 0.07 0.09 0.10 0.11 0.11 0.11 0.11 0.12 0.13 0.14 0.16 0.18 0.19 0.20 0.21 0.21 0.22 0.20 0.19 0.21 0.21 0.23 0.24 0.27 0.32 0.29 0.24 0.24 0.36 0.47 0.56 0.70 0.86 1.02 0.79 0.66 0.53 0.39 0.29 0.23 0.20 0.19 0.17 0.16 0.15 0.14 0.13 0.15 0.16 0.16 0.19 0.20 0.21 0.20 0.22 0.19 0.17 0.17 0.17 0.32 0.28 0.36 0.41 0.38 0.28 0.19 0.13 0.13 0.11 0.13 0.27 0.21 0.28 0.20 0.21 0.16 0.19 0.14 0.15 0.16 0.16
0.05 0.05 0.07 0.07 0.09 0.10 0.11 0.12 0.11 0.12 0.12 0.13 0.16 0.17 0.17 0.18 0.18 0.17 0.20 0.20 0.20 0.20 0.19 0.20 0.19 0.18 0.16 0.17 0.22 0.25 0.21 0.24 0.35 0.52 0.72 0.89 1.00 0.93 0.81 0.74 0.49 0.40 0.35 0.38 0.30 0.27 0.24 0.25 0.22 0.20 0.17 0.17 0.17 0.20 0.19 0.23 0.22 0.24 0.22 0.18 0.16 0.15 0.14 0.10 0.10 0.11 0.16 0.33 0.24 0.17 0.14 0.12 0.12 0.13 0.17 0.16 0.28 0.25 0.19 0.23 0.26 0.29 0.30 0.31 0.28
0.06 0.07 0.08 0.09 0.11 0.12 0.13 0.14 0.15 0.14 0.15 0.16 0.16 0.16 0.17 0.18 0.20 0.21 0.24 0.22 0.23 0.22 0.22 0.19 0.18 0.16 0.17 0.19 0.20 0.15 0.15 0.21 0.29 0.42 0.64 0.70 0.93 0.92 0.86 0.72 0.53 0.40 0.35 0.29 0.30 0.28 0.29 0.28 0.30 0.26 0.23 0.21 0.18 0.23 0.32 0.35 0.35 0.29 0.24 0.20 0.17 0.16 0.15 0.12 0.12 0.20 0.26 0.21 0.23 0.25 0.22 0.21 0.21 0.23 0.25 0.19 0.15 0.19 0.25 0.34 0.35 0.26 0.26 0.27 0.22
0.08 0.09 0.11 0.12 0.13 0.14 0.15 0.16 0.17 0.16 0.15 0.16 0.17 0.18 0.20 0.21 0.20 0.19 0.22 0.21 0.19 0.15 0.14 0.14 0.14 0.15 0.15 0.15 0.17 0.16 0.12 0.13 0.22 0.38 0.52 0.63 0.90 1.00 0.94 0.74 0.56 0.45 0.38 0.31 0.30 0.31 0.26 0.27 0.28 0.29 0.28 0.26 0.21 0.31 0.43 0.49 0.58 0.40 0.27 0.23 0.20 0.18 0.15 0.13 0.14 0.16 0.19 0.30 0.45 0.55 0.55 0.36 0.25 0.28 0.31 0.38 0.52 0.46 0.31 0.41 0.28 0.20 0.23 0.20 0.19
0.10 0.13 0.14 0.13 0.15 0.15 0.15 0.14 0.15 0.15 0.15 0.15 0.18 0.21 0.20 0.17 0.14 0.14 0.15 0.15 0.14 0.14 0.15 0.15 0.12 0.11 0.11 0.14 0.15 0.20 0.21 0.21 0.25 0.33 0.40 0.59 0.69 0.76 0.69 0.64 0.55 0.45 0.42 0.40 0.35 0.36 0.31 0.30 0.32 0.34 0.30 0.23 0.28 0.38 0.48 0.58 0.62 0.44 0.28 0.24 0.21 0.17 0.12 0.12 0.17 0.21 0.21 0.21 0.25 0.30 0.41 0.54 0.60 0.56 0.48 0.49 0.43 0.62 0.49 0.35 0.27 0.27 0.32 0.24 0.18
0.13 0.14 0.14 0.16 0.13 0.12 0.12 0.14 0.15 0.15 0.16 0.16 0.17 0.19 0.17 0.15 0.15 0.16 0.14 0.15 0.14 0.14 0.14 0.13 0.12 0.11 0.11 0.14 0.16 0.22 0.28 0.24 0.28 0.30 0.41 0.55 0.74 0.73 0.67 0.63 0.57 0.47 0.48 0.47 0.48 0.41 0.35 0.34 0.33 0.34 0.40 0.44 0.43 0.53 0.58 0.97 0.84 0.60 0.32 0.28 0.22 0.14 0.10 0.13 0.15 0.17 0.17 0.17 0.15 0.15 0.20 0.23 0.31 0.33 0.32 0.31 0.35 0.43 0.45 0.40 0.34 0.29 0.31 0.29 0.24
0.14 0.14 0.14 0.11 0.11 0.11 0.12 0.15 0.16 0.16 0.17 0.20 0.20 0.17 0.14 0.16 0.15 0.14 0.14 0.14 0.16 0.15 0.12 0.11 0.13 0.13 0.13 0.14 0.18 0.24 0.30 0.37 0.37 0.40 0.40 0.45 0.56 0.76 0.62 0.52 0.41 0.45 0.53 0.56 0.44 0.35 0.29 0.28 0.27 0.28 0.30 0.38 0.53 0.62 0.65 0.73 0.77 0.71 0.76 0.47 0.20 0.12 0.13 0.20 0.21 0.21 0.21 0.19 0.18 0.17 0.18 0.20 0.24 0.25 0.27 0.24 0.24 0.29 0.29 0.32 0.31 0.27 0.23 0.27 0.30
0.12 0.12 0.11 0.10 0.10 0.12 0.14 0.15 0.17 0.19 0.18 0.18 0.18 0.15 0.13 0.14 0.15 0.16 0.16 0.18 0.16 0.13 0.13 0.16 0.19 0.18 0.17 0.21 0.26 0.32 0.28 0.26 0.24 0.22 0.22 0.31 0.42 0.67 0.58 0.45 0.36 0.48 0.54 0.44 0.37 0.33 0.29 0.25 0.25 0.28 0.32 0.40 0.46 0.60 0.80 0.80 0.87 0.86 0.70 0.56 0.37 0.26 0.25 0.26 0.28 0.31 0.27 0.23 0.21 0.22 0.23 0.22 0.27 0.24 0.21 0.20 0.16 0.16 0.20 0.19 0.18 0.18 0.17 0.16 0.19
0.11 0.12 0.11 0.11 0.11 0.13 0.15 0.17 0.18 0.18 0.19 0.19 0.22 0.19 0.14 0.14 0.14 0.17 0.20 0.23 0.22 0.23 0.23 0.24 0.25 0.23 0.20 0.19 0.20 0.23 0.24 0.24 0.23 0.22 0.22 0.29 0.38 0.55 0.58 0.51 0.50 0.51 0.50 0.45 0.34 0.29 0.26 0.27 0.26 0.29 0.40 0.49 0.58 0.68 0.75 0.84 0.72 0.80 1.04 0.96 0.63 0.62 0.66 0.62 0.56 0.45 0.36 0.29 0.25 0.23 0.21 0.20 0.21 0.21 0.19 0.17 0.15 0.13 0.14 0.16 0.15 0.15 0.22 0.22 0.15
0.11 0.12 0.12 0.11 0.12 0.13 0.14 0.15 0.17 0.19 0.22 0.21 0.19 0.16 0.15 0.15 0.16 0.18 0.19 0.24 0.25 0.24 0.19 0.21 0.22 0.22 0.22 0.22 0.24 0.25 0.25 0.24 0.24 0.25 0.25 0.26 0.35 0.53 0.59 0.58 0.60 0.54 0.44 0.35 0.29 0.28 0.29 0.26 0.27 0.31 0.43 0.54 0.71 0.75 0.93 1.01 0.82 0.82 0.92 0.82 0.82 0.86 0.78 0.76 0.70 0.62 0.50 0.35 0.28 0.24 0.20 0.16 0.13 0.16 0.15 0.14 0.15 0.14 0.13 0.16 0.17 0.17 0.38 0.25 0.16
0.13 0.13 0.12 0.12 0.13 0.13 0.14 0.16 0.16 0.18 0.18 0.19 0.19 0.17 0.15 0.15 0.17 0.17 0.21 0.26 0.27 0.24 0.21 0.24 0.26 0.26 0.27 0.31 0.33 0.31 0.28 0.25 0.25 0.25 0.26 0.26 0.32 0.48 0.59 0.53 0.48 0.47 0.47 0.35 0.29 0.28 0.28 0.35 0.39 0.41 0.50 0.61 0.66 0.75 0.89 0.85 0.92 0.82 0.85 0.76 0.74 0.66 0.84 0.87 0.70 0.49 0.45 0.42 0.32 0.22 0.17 0.15 0.14 0.13 0.14 0.16 0.18 0.17 0.17 0.19 0.22 0.20 0.18 0.17 0.17
0.14 0.14 0.12 0.12 0.12 0.14 0.15 0.13 0.14 0.16 0.15 0.13 0.14 0.15 0.15 0.17 0.21 0.20 0.24 0.26 0.23 0.26 0.29 0.29 0.31 0.31 0.36 0.38 0.41 0.38 0.32 0.30 0.27 0.25 0.27 0.27 0.29 0.37 0.49 0.40 0.38 0.37 0.39 0.34 0.30 0.27 0.31 0.38 0.48 0.49 0.53 0.57 0.60 0.59 0.73 0.46 0.45 0.58 0.68 0.72 0.78 0.73 0.67 0.67 0.66 0.50 0.40 0.27 0.22 0.21 0.19 0.19 0.21 0.19 0.19 0.19 0.20 0.19 0.18 0.18 0.18 0.19 0.18 0.18 0.19
0.15 0.13 0.11 0.12 0.13 0.14 0.15 0.15 0.16 0.14 0.12 0.12 0.12 0.13 0.15 0.17 0.20 0.23 0.27 0.27 0.27 0.31 0.34 0.36 0.39 0.41 0.44 0.39 0.37 0.34 0.32 0.28 0.27 0.25 0.25 0.31 0.32 0.31 0.41 0.40 0.37 0.34 0.33 0.37 0.37 0.35 0.33 0.40 0.41 0.43 0.43 0.45 0.51 0.56 0.43 0.33 0.39 0.53 0.53 0.56 0.62 0.71 0.62 0.49 0.42 0.40 0.35 0.24 0.20 0.18 0.18 0.21 0.28 0.33 0.31 0.26 0.23 0.20 0.16 0.15 0.14 0.15 0.15 0.15 0.15
0.15 0.14 0.12 0.13 0.15 0.15 0.16 0.15 0.15 0.14 0.14 0.15 0.16 0.14 0.14 0.14 0.19 0.25 0.31 0.39 0.47 0.46 0.47 0.49 0.53 0.61 0.64 0.47 0.37 0.28 0.30 0.32 0.29 0.33 0.36 0.38 0.40 0.43 0.44 0.40 0.36 0.30 0.31 0.33 0.33 0.31 0.33 0.38 0.48 0.57 0.67 0.70 0.63 0.59 0.55 0.59 0.52 0.40 0.32 0.35 0.45 0.49 0.54 0.57 0.57 0.34 0.31 0.23 0.21 0.22 0.24 0.28 0.34 0.35 0.33 0.32 0.24 0.19 0.16 0.16 0.15 0.15 0.14 0.15 0.22
0.15 0.13 0.12 0.13 0.13 0.13 0.14 0.14 0.13 0.13 0.14 0.15 0.19 0.22 0.20 0.23 0.26 0.24 0.21 0.32 0.50 0.78 0.97 0.86 0.79 0.85 0.67 0.60 0.50 0.36 0.33 0.37 0.38 0.37 0.37 0.43 0.50 0.52 0.48 0.42 0.36 0.35 0.31 0.31 0.31 0.36 0.40 0.44 0.44 0.40 0.36 0.38 0.47 0.51 0.47 0.43 0.40 0.36 0.33 0.32 0.35 0.49 0.59 0.59 0.63 0.58 0.43 0.34 0.31 0.30 0.31 0.32 0.30 0.27 0.26 0.29 0.29 0.22 0.18 0.19 0.17 0.14 0.15 0.14 0.14
0.18 0.14 0.13 0.13 0.13 0.14 0.14 0.12 0.11 0.13 0.15 0.14 0.15 0.18 0.22 0.27 0.30 0.36 0.30 0.22 0.28 0.44 0.79 0.89 0.91 0.82 0.73 0.53 0.47 0.55 0.58 0.48 0.46 0.51 0.52 0.58 0.57 0.50 0.43 0.46 0.43 0.39 0.33 0.28 0.30 0.29 0.33 0.37 0.39 0.39 0.40 0.39 0.42 0.47 0.48 0.46 0.47 0.46 0.42 0.38 0.34 0.37 0.44 0.58 0.52 0.43 0.40 0.40 0.36 0.33 0.29 0.27 0.27 0.28 0.26 0.25 0.22 0.22 0.24 0.23 0.21 0.19 0.19 0.21 0.17
0.21 0.17 0.14 0.14 0.14 0.16 0.15 0.13 0.12 0.14 0.15 0.14 0.14 0.16 0.17 0.18 0.24 0.28 0.25 0.24 0.26 0.41 0.53 0.63 0.64 0.59 0.77 0.71 0.42 0.35 0.37 0.35 0.40 0.43 0.51 0.58 0.59 0.42 0.49 0.49 0.42 0.46 0.36 0.29 0.33 0.31 0.32 0.31 0.35 0.37 0.39 0.40 0.42 0.45 0.45 0.41 0.42 0.44 0.46 0.42 0.39 0.37 0.36 0.40 0.53 0.52 0.55 0.56 0.49 0.39 0.36 0.31 0.28 0.26 0.25 0.22 0.20 0.21 0.22 0.26 0.26 0.29 0.26 0.20 0.17
0.26 0.21 0.18 0.16 0.15 0.14 0.14 0.14 0.14 0.15 0.14 0.14 0.15 0.15 0.15 0.12 0.11 0.17 0.28 0.31 0.28 0.33 0.38 0.47 0.51 0.55 0.63 0.68 0.63 0.47 0.37 0.35 0.33 0.43 0.50 0.65 0.50 0.46 0.52 0.51 0.54 0.48 0.43 0.31 0.30 0.33 0.30 0.32 0.34 0.36 0.37 0.38 0.40 0.42 0.41 0.38 0.38 0.39 0.44 0.49 0.49 0.43 0.39 0.39 0.40 0.43 0.46 0.47 0.51 0.52 0.46 0.42 0.34 0.28 0.24 0.23 0.23 0.23 0.24 0.31 0.32 0.29 0.28 0.26 0.19
0.24 0.22 0.19 0.17 0.15 0.13 0.14 0.15 0.14 0.15 0.15 0.15 0.15 0.15 0.16 0.16 0.17 0.14 0.15 0.20 0.28 0.32 0.30 0.32 0.36 0.43 0.48 0.58 0.63 0.62 0.48 0.41 0.42 0.51 0.60 0.55 0.46 0.42 0.53 0.50 0.46 0.44 0.44 0.38 0.30 0.32 0.34 0.33 0.36 0.37 0.36 0.37 0.38 0.37 0.37 0.36 0.36 0.36 0.36 0.38 0.41 0.43 0.40 0.37 0.37 0.37 0.40 0.47 0.50 0.43 0.41 0.48 0.40 0.34 0.29 0.25 0.27 0.30 0.27 0.25 0.24 0.26 0.25 0.25 0.24
0.21 0.22 0.20 0.18 0.17 0.15 0.15 0.15 0.16 0.15 0.15 0.17 0.17 0.17 0.16 0.18 0.20 0.19 0.19 0.14 0.16 0.21 0.25 0.26 0.28 0.30 0.32 0.41 0.50 0.47 0.47 0.50 0.46 0.47 0.61 0.59 0.52 0.39 0.35 0.33 0.31 0.28 0.29 0.32 0.31 0.28 0.28 0.28 0.29 0.31 0.30 0.29 0.30 0.29 0.29 0.29 0.29 0.29 0.30 0.31 0.33 0.34 0.34 0.33 0.33 0.35 0.37 0.40 0.45 0.42 0.38 0.37 0.37 0.39 0.42 0.37 0.30 0.25 0.26 0.27 0.24 0.25 0.28 0.30 0.25
0.19 0.18 0.15 0.15 0.16 0.16 0.16 0.16 0.17 0.16 0.16 0.16 0.16 0.17 0.19 0.18 0.19 0.22 0.26 0.25 0.27 0.27 0.22 0.23 0.19 0.17 0.25 0.29 0.37 0.36 0.37 0.40 0.45 0.50 0.54 0.45 0.33 0.30 0.28 0.30 0.33 0.25 0.22 0.21 0.22 0.23 0.23 0.24 0.25 0.25 0.24 0.23 0.23 0.21 0.21 0.22 0.23 0.23 0.23 0.24 0.24 0.25 0.26 0.28 0.28 0.27 0.28 0.30 0.31 0.33 0.34 0.34 0.34 0.33 0.33 0.38 0.38 0.38 0.31 0.28 0.28 0.27 0.26 0.23 0.21
0.19 0.18 0.15 0.13 0.14 0.15 0.15 0.16 0.17 0.18 0.18 0.17 0.17 0.19 0.19 0.18 0.20 0.22 0.23 0.23 0.29 0.28 0.25 0.22 0.22 0.19 0.17 0.21 0.27 0.31 0.32 0.32 0.41 0.47 0.43 0.35 0.31 0.22 0.21 0.22 0.18 0.17 0.18 0.19 0.18 0.19 0.18 0.19 0.18 0.17 0.17 0.17 0.18 0.20 0.21 0.21 0.21 0.21 0.20 0.19 0.18 0.18 0.19 0.21 0.21 0.22 0.23 0.24 0.25 0.27 0.30 0.34 0.34 0.33 0.33 0.32 0.33 0.33 0.31 0.25 0.23 0.23 0.23 0.22 0.21
0.21 0.18 0.15 0.13 0.14 0.16 0.16 0.16 0.16 0.17 0.17 0.17 0.17 0.17 0.17 0.16 0.18 0.19 0.19 0.20 0.25 0.24 0.24 0.21 0.17 0.15 0.15 0.14 0.22 0.24 0.26 0.31 0.37 0.35 0.33 0.30 0.24 0.18 0.16 0.15 0.17 0.18 0.17 0.19 0.18 0.17 0.16 0.16 0.17 0.16 0.15 0.17 0.19 0.19 0.18 0.18 0.18 0.17 0.16 0.15 0.16 0.16 0.18 0.19 0.20 0.19 0.19 0.21 0.22 0.22 0.24 0.28 0.30 0.30 0.29 0.29 0.29 0.29 0.30 0.32 0.31 0.28 0.26 0.24 0.20
0.19 0.18 0.17 0.15 0.16 0.17 0.16 0.16 0.15 0.14 0.14 0.15 0.15 0.16 0.17 0.17 0.18 0.18 0.19 0.19 0.21 0.22 0.22 0.20 0.19 0.16 0.19 0.18 0.19 0.25 0.25 0.24 0.22 0.25 0.26 0.26 0.23 0.18 0.15 0.16 0.18 0.17 0.15 0.15 0.16 0.15 0.15 0.15 0.15 0.14 0.15 0.14 0.13 0.12 0.12 0.12 0.13 0.12 0.12 0.11 0.12 0.13 0.15 0.14 0.17 0.17 0.17 0.16 0.17 0.19 0.21 0.23 0.26 0.28 0.27 0.24 0.23 0.23 0.24 0.24 0.26 0.30 0.34 0.32 0.29
0.17 0.15 0.14 0.14 0.17 0.17 0.17 0.17 0.15 0.15 0.14 0.15 0.15 0.16 0.17 0.17 0.16 0.16 0.18 0.17 0.15 0.17 0.20 0.20 0.19 0.19 0.20 0.23 0.26 0.26 0.22 0.23 0.24 0.25 0.26 0.25 0.20 0.18 0.17 0.17 0.17 0.15 0.15 0.15 0.15 0.14 0.14 0.14 0.13 0.12 0.11 0.11 0.11 0.11 0.12 0.12 0.11 0.11 0.10 0.10 0.10 0.10 0.11 0.11 0.12 0.13 0.14 0.14 0.14 0.15 0.16 0.18 0.21 0.23 0.24 0.22 0.20 0.19 0.19 0.20 0.20 0.20 0.23 0.26 0.28
0.19 0.17 0.14 0.14 0.17 0.17 0.17 0.17 0.16 0.16 0.16 0.16 0.15 0.16 0.17 0.16 0.17 0.18 0.19 0.17 0.16 0.16 0.18 0.20 0.21 0.21 0.23 0.27 0.31 0.29 0.21 0.20 0.19 0.19 0.19 0.20 0.20 0.20 0.18 0.16 0.15 0.16 0.17 0.18 0.17 0.15 0.15 0.14 0.13 0.12 0.11 0.11 0.10 0.11 0.12 0.12 0.11 0.10 0.10 0.09 0.10 0.10 0.10 0.11 0.11 0.11 0.11 0.13 0.13 0.13 0.13 0.14 0.15 0.17 0.20 0.21 0.20 0.19 0.18 0.17 0.16 0.17 0.17 0.17 0.17
0.22 0.19 0.18 0.16 0.17 0.18 0.16 0.16 0.16 0.18 0.18 0.17 0.17 0.17 0.18 0.17 0.17 0.19 0.19 0.16 0.16 0.15 0.17 0.21 0.22 0.22 0.26 0.31 0.28 0.29 0.23 0.23 0.22 0.21 0.22 0.20 0.18 0.17 0.16 0.16 0.17 0.17 0.18 0.18 0.18 0.18 0.16 0.15 0.13 0.12 0.11 0.10 0.11 0.12 0.12 0.12 0.11 0.11 0.10 0.10 0.10 0.10 0.10 0.10 0.10 0.10 0.10 0.11 0.11 0.12 0.13 0.13 0.13 0.14 0.15 0.17 0.19 0.19 0.18 0.18 0.19 0.18 0.18 0.17 0.16
0.22 0.22 0.21 0.18 0.17 0.18 0.18 0.16 0.17 0.17 0.16 0.16 0.16 0.18 0.19 0.18 0.17 0.19 0.18 0.16 0.16 0.15 0.16 0.18 0.20 0.22 0.25 0.27 0.26 0.27 0.19 0.19 0.20 0.19 0.20 0.21 0.19 0.17 0.17 0.16 0.16 0.17 0.18 0.19 0.20 0.19 0.16 0.15 0.13 0.12 0.12 0.11 0.11 0.11 0.12 0.12 0.12 0.12 0.12 0.11 0.11 0.10 0.10 0.10 0.10 0.11 0.11 0.11 0.11 0.10 0.10 0.12 0.13 0.14 0.14 0.16 0.15 0.15 0.16 0.18 0.18 0.18 0.18 0.17 0.16
0.22 0.22 0.23 0.21 0.20 0.20 0.21 0.19 0.17 0.16 0.15 0.15 0.16 0.17 0.18 0.18 0.19 0.19 0.17 0.17 0.16 0.15 0.16 0.16 0.17 0.19 0.21 0.22 0.22 0.21 0.18 0.17 0.18 0.19 0.20 0.19 0.18 0.17 0.16 0.16 0.16 0.17 0.18 0.18 0.19 0.17 0.16 0.15 0.13 0.13 0.12 0.12 0.12 0.13 0.13 0.13 0.12 0.12 0.12 0.12 0.12 0.12 0.11 0.11 0.11 0.11 0.11 0.11 0.10 0.10 0.10 0.10 0.10 0.11 0.12 0.12 0.13 0.13 0.14 0.14 0.15 0.16 0.16 0.16 0.16
0.22 0.22 0.23 0.23 0.21 0.20 0.19 0.19 0.18 0.17 0.17 0.17 0.16 0.16 0.16 0.17 0.17 0.17 0.17 0.15 0.15 0.15 0.16 0.16 0.18 0.18 0.20 0.21 0.19 0.17 0.17 0.17 0.18 0.19 0.19 0.17 0.16 0.16 0.16 0.15 0.16 0.16 0.16 0.15 0.15 0.15 0.14 0.14 0.13 0.12 0.11 0.11 0.11 0.12 0.12 0.12 0.12 0.13 0.13 0.13 0.12 0.12 0.12 0.12 0.12 0.12 0.12 0.12 0.12 0.11 0.11 0.10 0.09 0.09 0.10 0.10 0.11 0.12 0.12 0.12 0.13 0.14 0.14 0.14 0.14
0.21 0.22 0.23 0.23 0.21 0.21 0.20 0.19 0.20 0.18 0.17 0.17 0.16 0.15 0.16 0.16 0.17 0.17 0.16 0.15 0.15 0.15 0.16 0.17 0.17 0.19 0.20 0.21 0.20 0.19 0.18 0.17 0.18 0.18 0.19 0.17 0.17 0.15 0.15 0.16 0.17 0.16 0.15 0.14 0.14 0.14 0.13 0.14 0.14 0.13 0.12 0.10 0.10 0.09 0.10 0.10 0.11 0.12 0.12 0.13 0.12 0.12 0.12 0.12 0.12 0.13 0.13 0.13 0.12 0.12 0.11 0.11 0.11 0.10 0.10 0.10 0.10 0.10 0.11 0.12 0.12 0.13 0.13 0.14 0.14
0.21 0.21 0.22 0.23 0.22 0.20 0.20 0.19 0.19 0.18 0.18 0.19 0.20 0.19 0.16 0.15 0.17 0.18 0.16 0.15 0.16 0.17 0.17 0.17 0.17 0.19 0.20 0.22 0.21 0.20 0.19 0.18 0.18 0.18 0.18 0.17 0.17 0.15 0.15 0.16 0.16 0.16 0.16 0.15 0.14 0.13 0.13 0.13 0.14 0.13 0.12 0.10 0.08 0.07 0.07 0.08 0.08 0.08 0.09 0.10 0.11 0.12 0.12 0.12 0.12 0.12 0.12 0.12 0.12 0.12 0.11 0.11 0.11 0.11 0.11 0.10 0.10 0.11 0.11 0.11 0.12 0.12 0.12 0.12 0.13
0.20 0.20 0.21 0.22 0.23 0.22 0.21 0.22 0.21 0.22 0.21 0.21 0.22 0.20 0.17 0.17 0.19 0.16 0.16 0.17 0.17 0.17 0.17 0.17 0.17 0.18 0.21 0.23 0.22 0.21 0.20 0.18 0.19 0.19 0.19 0.18 0.17 0.16 0.14 0.14 0.14 0.13 0.12 0.11 0.11 0.11 0.11 0.11 0.11 0.11 0.11 0.09 0.08 0.07 0.07 0.07 0.07 0.07 0.07 0.07 0.08 0.08 0.09 0.09 0.09 0.09 0.10 0.10 0.10 0.10 0.10 0.10 0.10 0.10 0.10 0.10 0.10 0.10 0.10 0.11 0.11 0.11 0.11 0.12 0.12
0.20 0.21 0.21 0.21 0.21 0.23 0.25 0.26 0.25 0.24 0.23 0.23 0.22 0.20 0.18 0.17 0.19 0.16 0.17 0.16 0.16 0.17 0.18 0.16 0.16 0.18 0.20 0.22 0.22 0.21 0.19 0.18 0.17 0.17 0.16 0.16 0.16 0.15 0.15 0.15 0.14 0.13 0.11 0.10 0.09 0.08 0.08 0.09 0.09 0.09 0.09 0.08 0.07 0.07 0.06 0.06 0.06 0.06 0.06 0.06 0.06 0.07 0.07 0.07 0.07 0.07 0.07 0.07 0.08 0.08 0.08 0.09 0.09 0.09 0.09 0.10 0.10 0.10 0.11 0.10 0.10 0.10 0.10 0.11 0.11
0.20 0.21 0.21 0.21 0.22 0.23 0.25 0.27 0.26 0.27 0.26 0.24 0.21 0.20 0.20 0.19 0.17 0.16 0.18 0.17 0.19 0.19 0.18 0.16 0.16 0.17 0.18 0.20 0.21 0.20 0.19 0.17 0.15 0.15 0.14 0.14 0.13 0.13 0.13 0.12 0.11 0.10 0.09 0.08 0.07 0.07 0.07 0.07 0.07 0.07 0.08 0.08 0.07 0.07 0.07 0.06 0.06 0.06 0.07 0.06 0.06 0.06 0.06 0.06 0.06 0.06 0.06 0.06 0.06 0.06 0.06 0.06 0.06 0.07 0.07 0.07 0.08 0.08 0.09 0.10 0.10 0.10 0.10 0.10 0.10
0.20 0.20 0.21 0.21 0.22 0.23 0.23 0.24 0.24 0.24 0.24 0.23 0.23 0.23 0.20 0.15 0.14 0.15 0.17 0.17 0.18 0.18 0.16 0.15 0.16 0.16 0.16 0.17 0.17 0.16 0.15 0.13 0.13 0.12 0.12 0.12 0.11 0.10 0.09 0.09 0.08 0.08 0.07 0.06 0.06 0.06 0.05 0.05 0.06 0.06 0.06 0.06 0.06 0.06 0.06 0.07 0.07 0.07 0.07 0.06 0.06 0.06 0.06 0.05 0.05 0.05 0.05 0.06 0.05 0.05 0.05 0.05 0.05 0.05 0.06 0.06 0.06 0.07 0.07 0.07 0.08 0.08 0.09 0.09 0.09
0.19 0.20 0.20 0.22 0.23 0.23 0.23 0.24 0.23 0.23 0.23 0.23 0.21 0.19 0.16 0.15 0.16 0.16 0.17 0.17 0.17 0.17 0.16 0.16 0.16 0.15 0.14 0.15 0.15 0.13 0.12 0.10 0.09 0.09 0.09 0.08 0.08 0.07 0.06 0.06 0.06 0.05 0.05 0.05 0.05 0.05 0.05 0.05 0.05 0.05 0.05 0.05 0.05 0.06 0.06 0.06 0.07 0.07 0.07 0.06 0.06 0.06 0.05 0.05 0.05 0.05 0.05 0.05 0.05 0.05 0.05 0.05 0.05 0.05 0.05 0.05 0.05 0.06 0.06 0.06 0.06 0.07 0.07 0.07 0.07